Location: Angola by the Bay
(38.6709°N, 75.1746°W)
Time: 06:19:20
(UTC+00:00)

DIWATA 2B (PO-101) - Pass Details

Date: 08 December 2024
Orbit: 569 x 582 km, 98.1° (Epoch: 18 January)

Event Time Altitude Azimuth Distance (km) Brightness Sun altitude
Rises 22:30:34 0° 3° (N) 2,789 ? -9.9°
Reaches altitude 10° 22:32:51 10° 354° (N) 1,884 ? -10.3°
Maximum altitude 22:36:34 35° 289° (WNW) 927 ? -11.0°
Drops below altitude 10° 22:40:16 10° 222° (SW) 1,866 ? -11.7°
Sets 22:42:30 0° 214° (SW) 2,757 ? -12.1°
